This demonstration page uses our WeatherBlox Daily Observations layout. Learn more.

Left ArrowRight Arrow

38.88101, -77.10428

Hourly Observations for August 17, 2022

Temp ( °F °C ) Dew Point ( °F °C ) Humidity (%) Winds ( mph kmh ) Pressure ( in mb ) Visibility ( mi km ) Precip ( " mm )
12:52 am 00:52 Partly Cloudy 72 22.2 61 16.1 68 68 Calm 30.01 1016 10 16 0.00 0.00
2:52 am 02:52 Mostly Clear 69 20.6 62 16.7 78 78 Calm 30.00 1016 10 16 0.00 0.00
3:52 am 03:52 Clear 66 18.9 62 16.7 87 87 NNW 5 7 30.00 1016 10 16 0.00 0.00
4:52 am 04:52 Clear 67 19.4 61 16.1 81 81 N 5 7 30.00 1016 10 16 0.00 0.00
5:52 am 05:52 Mostly Cloudy 66 18.9 62 16.7 87 87 N 5 7 30.01 1016 10 16 0.00 0.00
6:52 am 06:52 Mostly Cloudy 67 19.4 62 16.7 84 84 N 5 7 30.02 1017 10 16 0.00 0.00
7:52 am 07:52 Mostly Cloudy 69 20.6 63 17.2 81 81 N 3 6 30.03 1017 10 16 0.00 0.00
8:52 am 08:52 Mostly Cloudy 72 22.2 63 17.2 73 73 Calm 30.04 1017 10 16 0.00 0.00
9:52 am 09:52 Mostly Cloudy 76 24.4 64 17.8 67 67 Calm 30.05 1018 10 16 0.00 0.00
10:52 am 10:52 Mostly Cloudy 78 25.6 62 16.7 58 58 Calm 30.04 1017 10 16 0.00 0.00
11:52 am 11:52 Partly Cloudy 80 26.7 59 15 49 49 WNW 8 13 30.04 1017 10 16 0.00 0.00
12:52 pm 12:52 Mostly Cloudy 82 27.8 59 15 46 46 NNE 8 13 30.02 1017 10 16 0.00 0.00
1:52 pm 13:52 Partly Cloudy 83 28.3 59 15 44 44 NNW 9 15 30.01 1016 10 16 0.00 0.00
2:52 pm 14:52 Partly Cloudy 84 28.9 59 15 43 43 VRB 6 9 29.98 1015 10 16 0.00 0.00
3:52 pm 15:52 Mostly Cloudy 85 29.4 59 15 42 42 undefined N/A 29.95 1014 10 16 0.00 0.00
4:34 pm 16:34 Mostly Cloudy with Nearby Thunderstorms 84 28.9 58 14.4 41 41 NNW 8 13 29.94 1014 10 16 0.00 0.00
4:52 pm 16:52 Mostly Cloudy 85 29.4 59 15 42 42 NW 12 19 29.94 1014 10 16 0.00 0.00
5:10 pm 17:10 Mostly Cloudy with Nearby Thunderstorms 83 28.3 62 16.7 49 49 NE 18 30 29.94 1014 10 16 0.00 0.00
5:40 pm 17:40 Mostly Cloudy with Thunderstorms 77 25 61 16.1 58 58 NE 22 35 29.95 1014 10 16 0.00 0.00
5:52 pm 17:52 Mostly Cloudy with Nearby Thunderstorms 76 24.4 61 16.1 60 60 ENE 14 22 29.96 1014 10 16 0.00 0.00
6:17 pm 18:17 Mostly Cloudy 76 24.4 59 15 56 56 NE 5 7 29.95 1014 10 16 0.00 0.00
6:52 pm 18:52 Mostly Cloudy 74 23.3 62 16.7 66 66 SE 7 11 29.97 1015 10 16 0.00 0.00
7:52 pm 19:52 Mostly Cloudy 72 22.2 62 16.7 71 71 Calm 29.99 1016 10 16 0.00 0.00
8:52 pm 20:52 Mostly Cloudy 71 21.7 63 17.2 76 76 S 8 13 29.99 1016 10 16 0.01 0.13
9:52 pm 21:52 Mostly Cloudy 69 20.6 61 16.1 75 75 SE 3 6 30.00 1016 10 16 0.00 0.00
10:52 pm 22:52 Partly Cloudy 70 21.1 61 16.1 73 73 Calm 29.98 1015 10 16 0.00 0.00
11:52 pm 23:52 Mostly Clear 69 20.6 61 16.1 75 75 SSW 7 11 29.98 1015 10 16 0.00 0.00

Powered by AerisWeather